,,Stat6,,Stat2,,Stat8,,Stat9,,Stat10,,Wind1,,Wind1,
time,status,PA1M_AVG,status,PR1M_SUM,status,RH1M_AVG,status,SR1M_AVG,status,TA1M_AVG,status,W1dAve1m,status,W1sAve1m,
2009-04-30, 00:00:00,VALID,918.928,VALID,0,VALID,100,VALID,0,VALID,20.9844,VALID,335,VALID,0,
2009-04-30, 00:01:00,VALID,918.933,VALID,0,VALID,100,VALID,0.0169808,VALID,20.9712,VALID,355,VALID,0,
2009-04-30, 00:02:00,VALID,918.929,VALID,0,VALID,100,VALID,0.0339617,VALID,20.9614,VALID,17,VALID,0,
2009-04-30, 00:03:00,VALID,918.947,VALID,0,VALID,100,VALID,0.0339617,VALID,20.9714,VALID,21,VALID,0,
2009-04-30, 00:04:00,VALID,918.95,VALID,0,VALID,100,VALID,0.0169808,VALID,20.9906,VALID,21,VALID,0,
2009-04-30, 00:05:00,VALID,918.961,VALID,0,VALID,100,VALID,0.0509425,VALID,21.0098,VALID,21,VALID,0,
2009-04-30, 00:06:00,VALID,918.972,VALID,0,VALID,100,VALID,0.0679233,VALID,21.0293,VALID,21,VALID,0,
2009-04-30, 00:07:00,VALID,918.975,VALID,0,VALID,100,VALID,0.0339617,VALID,21.0428,VALID,21,VALID,0,
2009-04-30, 00:08:00,VALID,918.983,VALID,0,VALID,100,VALID,0.0169808,VALID,21.0461,VALID,21,VALID,0,
2009-04-30, 00:09:00,VALID,918.961,VALID,0,VALID,100,VALID,-0.0169808,VALID,21.0636,VALID,21,VALID,0,
2009-04-30, 00:10:00,VALID,918.949,VALID,0,VALID,100,VALID,-0.0169808,VALID,21.0831,VALID,21,VALID,0.0353423,
2009-04-30, 00:11:00,VALID,918.921,VALID,0,VALID,100,VALID,-0.0679233,VALID,21.1023,VALID,21,VALID,0,
2009-04-30, 00:12:00,VALID,918.898,VALID,0,VALID,100,VALID,-0.0849042,VALID,21.1353,VALID,21,VALID,0,
2009-04-30, 00:13:00,VALID,918.875,VALID,0,VALID,100,VALID,-0.0849042,VALID,21.1188,VALID,21,VALID,0,
2009-04-30, 00:14:00,VALID,918.843,VALID,0,VALID,100,VALID,-0.0849042,VALID,21.1121,VALID,21,VALID,0,
2009-04-30, 00:15:00,VALID,918.8,VALID,0,VALID,100,VALID,-0.0339617,VALID,21.1061,VALID,331,VALID,0,
2009-04-30, 00:16:01,VALID,918.764,VALID,0,VALID,100,VALID,-0.0169808,VALID,21.0985,VALID,296,VALID,0,
2009-04-30, 00:17:00,VALID,918.712,VALID,0,VALID,100,VALID,-0.101885,VALID,21.1126,VALID,296,VALID,0,
2009-04-30, 00:18:00,VALID,918.673,VALID,0,VALID,100,VALID,-0.0849042,VALID,21.1156,VALID,296,VALID,0,
2009-04-30, 00:19:00,VALID,918.635,VALID,0,VALID,100,VALID,-0.0679233,VALID,21.1188,VALID,296,VALID,0,
2009-04-30, 00:20:00,VALID,918.593,VALID,0,VALID,100,VALID,-0.0679233,VALID,21.1226,VALID,296,VALID,0,
2009-04-30, 00:21:00,VALID,918.542,VALID,0,VALID,100,VALID,-0.101885,VALID,21.1383,VALID,330,VALID,0,
2009-04-30, 00:22:01,VALID,918.509,VALID,0,VALID,100,VALID,-0.0509425,VALID,21.1345,VALID,13,VALID,0,
2009-04-30, 00:23:00,VALID,918.504,VALID,0,VALID,100,VALID,-0.0849042,VALID,21.1218,VALID,37,VALID,0,
2009-04-30, 00:24:00,VALID,918.486,VALID,0,VALID,100,VALID,-0.0679233,VALID,21.1121,VALID,37,VALID,0,
2009-04-30, 00:25:01,VALID,918.473,VALID,0,VALID,100,VALID,-0.0509425,VALID,21.1061,VALID,37,VALID,0,
2009-04-30, 00:26:00,VALID,918.455,VALID,0,VALID,100,VALID,-0.101885,VALID,21.1126,VALID,37,VALID,0,
2009-04-30, 00:27:00,VALID,918.467,VALID,0,VALID,100,VALID,-0.0509425,VALID,21.1061,VALID,86,VALID,0,
2009-04-30, 00:28:01,VALID,918.463,VALID,0,VALID,100,VALID,-0.101885,VALID,21.1158,VALID,41,VALID,0,
2009-04-30, 00:29:00,VALID,918.474,VALID,0,VALID,100,VALID,-0.0509425,VALID,21.1286,VALID,41,VALID,0,
2009-04-30, 00:30:00,VALID,918.482,VALID,0,VALID,100,VALID,-0.0849042,VALID,21.1348,VALID,41,VALID,0,
2009-04-30, 00:31:00,VALID,918.488,VALID,0,VALID,100,VALID,-0.0849042,VALID,21.1248,VALID,41,VALID,0,
2009-04-30, 00:32:01,VALID,918.484,VALID,0,VALID,100,VALID,-0.0679233,VALID,21.1348,VALID,35,VALID,0,
2009-04-30, 00:33:01,VALID,918.488,VALID,0,VALID,100,VALID,-0.0849042,VALID,21.1448,VALID,25,VALID,0,
2009-04-30, 00:34:00,VALID,918.482,VALID,0,VALID,100,VALID,-0.0849042,VALID,21.1545,VALID,19,VALID,0.0407247,
2009-04-30, 00:35:00,VALID,918.466,VALID,0,VALID,100,VALID,-0.101885,VALID,21.1578,VALID,19,VALID,0.413681,
2009-04-30, 00:36:00,VALID,918.465,VALID,0,VALID,100,VALID,-0.0679233,VALID,21.1483,VALID,21,VALID,0.317522,
2009-04-30, 00:37:00,VALID,918.444,VALID,0,VALID,100,VALID,-0.0679233,VALID,21.1643,VALID,26,VALID,0.471989,
2009-04-30, 00:38:00,VALID,918.417,VALID,0,VALID,100,VALID,-0.0169808,VALID,21.1702,VALID,29,VALID,0.744591,
2009-04-30, 00:39:00,VALID,918.392,VALID,0,VALID,100,VALID,-0.0169808,VALID,21.1632,VALID,8,VALID,0.296303,
2009-04-30, 00:40:00,VALID,918.376,VALID,0,VALID,100,VALID,-0.0169808,VALID,21.1599,VALID,24,VALID,0.392401,
2009-04-30, 00:41:00,VALID,918.356,VALID,0,VALID,100,VALID,0,VALID,21.1835,VALID,28,VALID,0.802144,
2009-04-30, 00:42:00,VALID,918.359,VALID,0,VALID,100,VALID,0,VALID,21.18,VALID,16,VALID,0.235085,
2009-04-30, 00:43:01,VALID,918.351,VALID,0,VALID,100,VALID,-0.0169808,VALID,21.1935,VALID,35,VALID,0.00745739,
2009-04-30, 00:44:01,VALID,918.343,VALID,0,VALID,100,VALID,0,VALID,21.1965,VALID,39,VALID,0.000195313,
2009-04-30, 00:45:01,VALID,918.301,VALID,0,VALID,100,VALID,-0.0169808,VALID,21.187,VALID,26,VALID,0.121626,
2009-04-30, 00:46:01,VALID,918.282,VALID,0,VALID,100,VALID,0,VALID,21.19,VALID,28,VALID,0.659624,
2009-04-30, 00:47:00,VALID,918.235,VALID,0,VALID,100,VALID,0,VALID,21.1805,VALID,25,VALID,0.702381,
2009-04-30, 00:48:00,VALID,918.198,VALID,0,VALID,100,VALID,-0.0339617,VALID,21.174,VALID,23,VALID,0.835756,
2009-04-30, 00:49:00,VALID,918.18,VALID,0,VALID,100,VALID,0.0169808,VALID,21.1608,VALID,20,VALID,0.51059,
2009-04-30, 00:50:00,VALID,918.159,VALID,0,VALID,100,VALID,-0.0169808,VALID,21.1767,VALID,28,VALID,0.00177557,
2009-04-30, 00:51:00,VALID,918.131,VALID,0,VALID,100,VALID,0,VALID,21.1835,VALID,19,VALID,0.408668,
2009-04-30, 00:52:01,VALID,918.137,VALID,0,VALID,100,VALID,-0.0339617,VALID,21.1632,VALID,22,VALID,0.060404,
2009-04-30, 00:53:00,VALID,918.134,VALID,0,VALID,100,VALID,-0.0339617,VALID,21.1405,VALID,17,VALID,0,
2009-04-30, 00:54:00,VALID,918.147,VALID,0,VALID,100,VALID,-0.0339617,VALID,21.1537,VALID,35,VALID,0.0143532,
2009-04-30, 00:55:00,VALID,918.148,VALID,0,VALID,100,VALID,0,VALID,21.1537,VALID,26,VALID,0.0399926,
2009-04-30, 00:56:00,VALID,918.146,VALID,0,VALID,100,VALID,0,VALID,21.1537,VALID,21,VALID,0.00217014,
2009-04-30, 00:57:01,VALID,918.153,VALID,0,VALID,100,VALID,-0.0169808,VALID,21.1737,VALID,35,VALID,0,
2009-04-30, 00:58:01,VALID,918.128,VALID,0,VALID,100,VALID,-0.0169808,VALID,21.187,VALID,26,VALID,0.0972842,
2009-04-30, 00:59:00,VALID,918.097,VALID,0,VALID,100,VALID,-0.0509425,VALID,21.1608,VALID,26,VALID,0.113095,
2009-04-30, 01:00:01,VALID,918.063,VALID,0,VALID,100,VALID,0,VALID,21.1437,VALID,11,VALID,0.000545058,
2009-04-30, 01:01:01,VALID,918.008,VALID,0,VALID,100,VALID,0,VALID,21.1215,VALID,5,VALID,0.00381944,
2009-04-30, 01:02:01,VALID,917.934,VALID,0,VALID,100,VALID,0,VALID,21.0956,VALID,12,VALID,0.0658482,
2009-04-30, 01:03:00,VALID,917.873,VALID,0,VALID,100,VALID,0,VALID,21.0861,VALID,347,VALID,0.0236111,
2009-04-30, 01:04:01,VALID,917.84,VALID,0,VALID,100,VALID,-0.0169808,VALID,21.0396,VALID,334,VALID,0,
2009-04-30, 01:05:00,VALID,917.794,VALID,0,VALID,100,VALID,-0.0169808,VALID,21.0269,VALID,352,VALID,0,
2009-04-30, 01:06:01,VALID,917.781,VALID,0,VALID,100,VALID,0.0169808,VALID,21.0463,VALID,3,VALID,0,
2009-04-30, 01:07:01,VALID,917.778,VALID,0,VALID,100,VALID,0.0169808,VALID,21.0661,VALID,5,VALID,0,
2009-04-30, 01:08:01,VALID,917.778,VALID,0,VALID,100,VALID,0,VALID,21.0661,VALID,2,VALID,0.0183503,
2009-04-30, 01:09:01,VALID,917.774,VALID,0,VALID,100,VALID,0,VALID,21.0396,VALID,357,VALID,0,
2009-04-30, 01:10:01,VALID,917.761,VALID,0,VALID,100,VALID,-0.0169808,VALID,21.0301,VALID,10,VALID,0,
2009-04-30, 01:11:01,VALID,917.742,VALID,0,VALID,100,VALID,0.0169808,VALID,21.0336,VALID,3,VALID,0.134588,
2009-04-30, 01:12:01,VALID,917.719,VALID,0,VALID,100,VALID,0.0169808,VALID,21.0636,VALID,21,VALID,0,
2009-04-30, 01:13:00,VALID,917.706,VALID,0,VALID,100,VALID,0,VALID,21.0769,VALID,36,VALID,0,
2009-04-30, 01:14:00,VALID,917.701,VALID,0,VALID,100,VALID,0,VALID,21.0531,VALID,19,VALID,0.0577762,
2009-04-30, 01:15:00,VALID,917.696,VALID,0,VALID,100,VALID,0.0169808,VALID,21.0593,VALID,20,VALID,0.117188,
2009-04-30, 01:16:00,VALID,917.709,VALID,0,VALID,100,VALID,0,VALID,21.0828,VALID,20,VALID,0.00661058,
2009-04-30, 01:17:00,VALID,917.693,VALID,0,VALID,100,VALID,0,VALID,21.0856,VALID,14,VALID,0,
2009-04-30, 01:18:00,VALID,917.68,VALID,0,VALID,100,VALID,0,VALID,21.0791,VALID,16,VALID,0,
2009-04-30, 01:19:00,VALID,917.659,VALID,0,VALID,100,VALID,-0.0169808,VALID,21.0956,VALID,16,VALID,0,
2009-04-30, 01:20:00,VALID,917.638,VALID,0,VALID,100,VALID,-0.0169808,VALID,21.1121,VALID,17,VALID,0,
2009-04-30, 01:21:00,VALID,917.63,VALID,0,VALID,100,VALID,0,VALID,21.1153,VALID,9,VALID,0.0530134,
2009-04-30, 01:22:00,VALID,917.626,VALID,0,VALID,100,VALID,-0.0679233,VALID,21.1218,VALID,358,VALID,0,
2009-04-30, 01:23:00,VALID,917.629,VALID,0,VALID,100,VALID,-0.0339617,VALID,21.115,VALID,337,VALID,0,
2009-04-30, 01:24:00,VALID,917.645,VALID,0,VALID,100,VALID,0,VALID,21.0983,VALID,233,VALID,0,
2009-04-30, 01:25:00,VALID,917.661,VALID,0,VALID,100,VALID,0,VALID,21.0861,VALID,245,VALID,0,
2009-04-30, 01:26:00,VALID,917.662,VALID,0,VALID,100,VALID,-0.0169808,VALID,21.0628,VALID,245,VALID,0,
2009-04-30, 01:27:00,VALID,917.673,VALID,0,VALID,100,VALID,0,VALID,21.0728,VALID,245,VALID,0,
2009-04-30, 01:28:00,VALID,917.648,VALID,0,VALID,100,VALID,0.0169808,VALID,21.0658,VALID,245,VALID,0,
2009-04-30, 01:29:00,VALID,917.654,VALID,0,VALID,100,VALID,-0.0169808,VALID,21.0761,VALID,330,VALID,0.12138,
2009-04-30, 01:30:00,VALID,917.641,VALID,0,VALID,100,VALID,0,VALID,21.0764,VALID,39,VALID,0,
2009-04-30, 01:31:00,VALID,917.627,VALID,0,VALID,100,VALID,0,VALID,21.0728,VALID,41,VALID,0.00117188,
2009-04-30, 01:32:00,VALID,917.614,VALID,0,VALID,100,VALID,-0.0169808,VALID,21.0828,VALID,16,VALID,0.239955,
2009-04-30, 01:33:00,VALID,917.608,VALID,0,VALID,100,VALID,-0.0169808,VALID,21.0766,VALID,26,VALID,0,
2009-04-30, 01:34:00,VALID,917.609,VALID,0,VALID,100,VALID,0,VALID,21.0923,VALID,28,VALID,0,
2009-04-30, 01:35:00,VALID,917.631,VALID,0,VALID,100,VALID,0,VALID,21.1048,VALID,25,VALID,0,
2009-04-30, 01:36:00,VALID,917.643,VALID,0,VALID,100,VALID,0.0169808,VALID,21.0983,VALID,32,VALID,0,
2009-04-30, 01:37:00,VALID,917.662,VALID,0,VALID,100,VALID,-0.0339617,VALID,21.0666,VALID,50,VALID,0,
2009-04-30, 01:38:00,VALID,917.674,VALID,0,VALID,100,VALID,0,VALID,21.0306,VALID,53,VALID,0,
2009-04-30, 01:39:00,VALID,917.69,VALID,0,VALID,100,VALID,-0.0679233,VALID,21.0182,VALID,38,VALID,0,
2009-04-30, 01:40:00,VALID,917.674,VALID,0,VALID,100,VALID,-0.0849042,VALID,21.0114,VALID,36,VALID,0,
2009-04-30, 01:41:00,VALID,917.685,VALID,0,VALID,100,VALID,-0.101885,VALID,21.0025,VALID,30,VALID,0,
2009-04-30, 01:42:00,VALID,917.684,VALID,0,VALID,100,VALID,-0.0849042,VALID,21.0052,VALID,31,VALID,0,
2009-04-30, 01:43:00,VALID,917.669,VALID,0,VALID,100,VALID,-0.0679233,VALID,21.0074,VALID,31,VALID,0,
2009-04-30, 01:44:00,VALID,917.675,VALID,0,VALID,100,VALID,-0.0679233,VALID,21.0114,VALID,31,VALID,0,
2009-04-30, 01:45:00,VALID,917.666,VALID,0,VALID,100,VALID,-0.0509425,VALID,21.0017,VALID,30,VALID,0,
2009-04-30, 01:46:00,VALID,917.674,VALID,0,VALID,100,VALID,-0.0679233,VALID,20.9949,VALID,32,VALID,0,
2009-04-30, 01:47:00,VALID,917.67,VALID,0,VALID,100,VALID,-0.0849042,VALID,20.9984,VALID,54,VALID,0,
2009-04-30, 01:48:00,VALID,917.669,VALID,0,VALID,100,VALID,-0.0679233,VALID,21.0079,VALID,24,VALID,0,
2009-04-30, 01:49:00,VALID,917.66,VALID,0,VALID,100,VALID,-0.0509425,VALID,21.0214,VALID,324,VALID,0,
2009-04-30, 01:50:00,VALID,917.648,VALID,0,VALID,100,VALID,-0.0509425,VALID,21.0206,VALID,324,VALID,0,
2009-04-30, 01:51:00,VALID,917.637,VALID,0,VALID,100,VALID,-0.0849042,VALID,21.0369,VALID,17,VALID,0,
2009-04-30, 01:52:00,VALID,917.632,VALID,0,VALID,100,VALID,-0.0509425,VALID,21.0139,VALID,39,VALID,0,
2009-04-30, 01:53:00,VALID,917.638,VALID,0,VALID,100,VALID,-0.0509425,VALID,21.0209,VALID,39,VALID,0,
2009-04-30, 01:54:00,VALID,917.64,VALID,0,VALID,100,VALID,-0.0679233,VALID,21.0114,VALID,306,VALID,0,
2009-04-30, 01:55:00,VALID,917.658,VALID,0,VALID,100,VALID,-0.0679233,VALID,21.0014,VALID,278,VALID,0.0340909,
2009-04-30, 01:56:00,VALID,917.674,VALID,0,VALID,100,VALID,-0.0509425,VALID,20.9982,VALID,277,VALID,0,
2009-04-30, 01:57:00,VALID,917.688,VALID,0,VALID,100,VALID,-0.0679233,VALID,20.9852,VALID,261,VALID,0,
2009-04-30, 01:58:00,VALID,917.698,VALID,0,VALID,100,VALID,-0.101885,VALID,20.9757,VALID,249,VALID,0,
2009-04-30, 01:59:00,VALID,917.722,VALID,0,VALID,100,VALID,-0.0679233,VALID,20.9625,VALID,242,VALID,0.0625,
2009-04-30, 02:00:00,VALID,917.748,VALID,0,VALID,100,VALID,-0.0679233,VALID,20.963,VALID,254,VALID,0.202592,
2009-04-30, 02:01:00,VALID,917.762,VALID,0,VALID,100,VALID,-0.0339617,VALID,20.9276,VALID,257,VALID,0.0458333,
2009-04-30, 02:02:00,VALID,917.779,VALID,0,VALID,100,VALID,-0.0509425,VALID,20.9141,VALID,249,VALID,0,
2009-04-30, 02:03:00,VALID,917.793,VALID,0,VALID,100,VALID,-0.0679233,VALID,20.9303,VALID,213,VALID,0,
2009-04-30, 02:04:00,VALID,917.808,VALID,0,VALID,100,VALID,-0.0849042,VALID,20.9433,VALID,233,VALID,0,
2009-04-30, 02:05:00,VALID,917.818,VALID,0,VALID,100,VALID,-0.101885,VALID,20.9403,VALID,246,VALID,0,
2009-04-30, 02:06:00,VALID,917.81,VALID,0,VALID,100,VALID,-0.101885,VALID,20.9503,VALID,251,VALID,0,
2009-04-30, 02:07:00,VALID,917.803,VALID,0,VALID,100,VALID,-0.0679233,VALID,20.9435,VALID,252,VALID,0,
2009-04-30, 02:08:00,VALID,917.783,VALID,0,VALID,100,VALID,-0.0849042,VALID,20.9598,VALID,297,VALID,0,
2009-04-30, 02:09:00,VALID,917.785,VALID,0,VALID,100,VALID,0,VALID,20.9679,VALID,301,VALID,0,
2009-04-30, 02:10:00,VALID,917.771,VALID,0,VALID,100,VALID,0.0169808,VALID,20.9771,VALID,301,VALID,0,
2009-04-30, 02:11:00,VALID,917.765,VALID,0,VALID,100,VALID,0.0169808,VALID,20.9839,VALID,301,VALID,0,
2009-04-30, 02:12:00,VALID,917.754,VALID,0,VALID,100,VALID,-0.0169808,VALID,20.9971,VALID,301,VALID,0,
2009-04-30, 02:13:00,VALID,917.739,VALID,0,VALID,100,VALID,-0.0169808,VALID,20.9871,VALID,301,VALID,0,
2009-04-30, 02:14:00,VALID,917.725,VALID,0,VALID,100,VALID,0.0509425,VALID,20.9674,VALID,301,VALID,0,
2009-04-30, 02:15:00,VALID,917.728,VALID,0,VALID,100,VALID,0.0169808,VALID,20.9579,VALID,301,VALID,0,
2009-04-30, 02:16:00,VALID,917.715,VALID,0,VALID,100,VALID,0.0509425,VALID,20.9574,VALID,301,VALID,0,
2009-04-30, 02:17:00,VALID,917.707,VALID,0,VALID,100,VALID,0.0169808,VALID,20.9641,VALID,275,VALID,0,
2009-04-30, 02:18:00,VALID,917.703,VALID,0,VALID,100,VALID,0.0679233,VALID,20.9869,VALID,253,VALID,0,
2009-04-30, 02:19:00,VALID,917.69,VALID,0,VALID,100,VALID,0,VALID,20.9733,VALID,253,VALID,0,
2009-04-30, 02:20:00,VALID,917.676,VALID,0.2,VALID,100,VALID,0.0169808,VALID,20.9771,VALID,253,VALID,0,
2009-04-30, 02:21:00,VALID,917.682,VALID,0,VALID,100,VALID,0.0169808,VALID,20.9836,VALID,253,VALID,0,
2009-04-30, 02:22:00,VALID,917.675,VALID,0.2,VALID,100,VALID,0.0169808,VALID,20.9898,VALID,305,VALID,0,
2009-04-30, 02:23:00,VALID,917.673,VALID,0,VALID,100,VALID,0.0679233,VALID,21.0188,VALID,37,VALID,0,
2009-04-30, 02:24:00,VALID,917.668,VALID,0,VALID,100,VALID,0.0679233,VALID,21.0261,VALID,31,VALID,0,
2009-04-30, 02:25:00,VALID,917.674,VALID,0.2,VALID,100,VALID,0.0679233,VALID,21.0261,VALID,31,VALID,0,
2009-04-30, 02:26:00,VALID,917.668,VALID,0,VALID,100,VALID,0.0169808,VALID,21.0361,VALID,31,VALID,0,
2009-04-30, 02:27:00,VALID,917.655,VALID,0,VALID,100,VALID,0.0169808,VALID,21.0423,VALID,31,VALID,0,
2009-04-30, 02:28:00,VALID,917.65,VALID,0.2,VALID,100,VALID,0.0169808,VALID,21.0393,VALID,33,VALID,0,
2009-04-30, 02:29:00,VALID,917.636,VALID,0,VALID,100,VALID,-0.0169808,VALID,21.0198,VALID,41,VALID,0,
2009-04-30, 02:30:00,VALID,917.633,VALID,0,VALID,100,VALID,0,VALID,21.0234,VALID,41,VALID,0,
2009-04-30, 02:31:00,VALID,917.622,VALID,0.4,VALID,100,VALID,0.0339617,VALID,21.0198,VALID,41,VALID,0,
2009-04-30, 02:32:00,VALID,917.618,VALID,0.2,VALID,100,VALID,0.0339617,VALID,21.0093,VALID,41,VALID,0,
2009-04-30, 02:33:00,VALID,917.609,VALID,0.4,VALID,100,VALID,0,VALID,21.0234,VALID,16,VALID,0,
2009-04-30, 02:34:00,VALID,917.617,VALID,0.6,VALID,100,VALID,0,VALID,21.0166,VALID,352,VALID,0,
2009-04-30, 02:35:00,VALID,917.609,VALID,0.6,VALID,100,VALID,0.0679233,VALID,20.9966,VALID,344,VALID,0,
2009-04-30, 02:36:00,VALID,917.601,VALID,0.4,VALID,100,VALID,0.0339617,VALID,20.9774,VALID,4,VALID,0,
2009-04-30, 02:37:00,VALID,917.58,VALID,0.4,VALID,100,VALID,0.0339617,VALID,20.9839,VALID,13,VALID,0.077381,
2009-04-30, 02:38:00,VALID,917.577,VALID,0.2,VALID,100,VALID,0.0339617,VALID,20.9739,VALID,23,VALID,0,
2009-04-30, 02:39:00,VALID,917.582,VALID,0.2,VALID,100,VALID,-0.118866,VALID,20.9663,VALID,19,VALID,0,
2009-04-30, 02:40:00,VALID,917.575,VALID,0.2,VALID,100,VALID,-0.0849042,VALID,20.9335,VALID,300,VALID,0,
2009-04-30, 02:41:00,VALID,917.564,VALID,0.4,VALID,100,VALID,-0.0849042,VALID,20.8848,VALID,267,VALID,0,
2009-04-30, 02:42:00,VALID,917.577,VALID,0.4,VALID,100,VALID,-0.0849042,VALID,20.8359,VALID,267,VALID,0,
2009-04-30, 02:43:00,VALID,917.559,VALID,1,VALID,100,VALID,-0.0849042,VALID,20.8169,VALID,266,VALID,0.0559593,
2009-04-30, 02:44:00,VALID,917.527,VALID,0.8,VALID,100,VALID,-0.0849042,VALID,20.7875,VALID,274,VALID,0.0197173,
2009-04-30, 02:45:00,VALID,917.481,VALID,0.6,VALID,100,VALID,-0.0679233,VALID,20.7815,VALID,309,VALID,0.0402344,
2009-04-30, 02:46:00,VALID,917.448,VALID,0.4,VALID,100,VALID,-0.101885,VALID,20.7585,VALID,336,VALID,0.00279018,
2009-04-30, 02:47:00,VALID,917.431,VALID,0.4,VALID,100,VALID,-0.0849042,VALID,20.7845,VALID,1,VALID,0,
2009-04-30, 02:48:00,VALID,917.422,VALID,0.2,VALID,100,VALID,-0.101885,VALID,20.7847,VALID,342,VALID,0,
2009-04-30, 02:49:00,VALID,917.443,VALID,0.2,VALID,100,VALID,-0.101885,VALID,20.775,VALID,234,VALID,0,
2009-04-30, 02:50:00,VALID,917.458,VALID,0,VALID,100,VALID,-0.101885,VALID,20.7518,VALID,232,VALID,0,
2009-04-30, 02:51:00,VALID,917.462,VALID,0,VALID,100,VALID,-0.0679233,VALID,20.7453,VALID,230,VALID,0,
2009-04-30, 02:52:00,VALID,917.482,VALID,0.2,VALID,100,VALID,-0.101885,VALID,20.7485,VALID,229,VALID,0,
2009-04-30, 02:53:00,VALID,917.478,VALID,0,VALID,100,VALID,-0.101885,VALID,20.7523,VALID,229,VALID,0,
2009-04-30, 02:54:00,VALID,917.488,VALID,0.2,VALID,100,VALID,0,VALID,20.7369,VALID,229,VALID,0,
2009-04-30, 02:55:00,VALID,917.495,VALID,0.2,VALID,100,VALID,0.0339617,VALID,20.7637,VALID,278,VALID,0,
2009-04-30, 02:56:00,VALID,917.478,VALID,0,VALID,100,VALID,0,VALID,20.7956,VALID,7,VALID,0,
2009-04-30, 02:57:00,VALID,917.467,VALID,0,VALID,100,VALID,0.0339617,VALID,20.7924,VALID,21,VALID,0,
2009-04-30, 02:58:00,VALID,917.458,VALID,0.2,VALID,100,VALID,0.0169808,VALID,20.8219,VALID,32,VALID,0.0321801,
2009-04-30, 02:59:00,VALID,917.449,VALID,0,VALID,100,VALID,-0.0169808,VALID,20.8059,VALID,26,VALID,0.102134,
2009-04-30, 03:00:00,VALID,917.462,VALID,0,VALID,100,VALID,-0.0169808,VALID,20.7861,VALID,28,VALID,0.0227273,
2009-04-30, 03:01:00,VALID,917.44,VALID,0,VALID,100,VALID,0,VALID,20.7994,VALID,23,VALID,0,
2009-04-30, 03:02:00,VALID,917.43,VALID,0,VALID,100,VALID,0.0169808,VALID,20.7826,VALID,10,VALID,0.118786,
2009-04-30, 03:03:00,VALID,917.394,VALID,0,VALID,100,VALID,0,VALID,20.7864,VALID,20,VALID,0,
2009-04-30, 03:04:00,VALID,917.386,VALID,0,VALID,100,VALID,0,VALID,20.7699,VALID,24,VALID,0,
2009-04-30, 03:05:00,VALID,917.375,VALID,0.2,VALID,100,VALID,0.0169808,VALID,20.7664,VALID,18,VALID,0.00130208,
2009-04-30, 03:06:00,VALID,917.342,VALID,0,VALID,100,VALID,0.0339617,VALID,20.7662,VALID,3,VALID,0,
2009-04-30, 03:07:00,VALID,917.316,VALID,0,VALID,100,VALID,0,VALID,20.7832,VALID,10,VALID,0.111806,
2009-04-30, 03:08:00,VALID,917.298,VALID,0,VALID,100,VALID,0.0339617,VALID,20.7629,VALID,358,VALID,0.0446429,
2009-04-30, 03:09:00,VALID,917.258,VALID,0,VALID,100,VALID,-0.0679233,VALID,20.7645,VALID,8,VALID,0,
2009-04-30, 03:10:00,VALID,917.248,VALID,0,VALID,100,VALID,-0.101885,VALID,20.775,VALID,22,VALID,0.100291,
2009-04-30, 03:11:00,VALID,917.234,VALID,0,VALID,100,VALID,-0.0849042,VALID,20.784,VALID,25,VALID,0,
2009-04-30, 03:12:00,VALID,917.214,VALID,0,VALID,100,VALID,-0.0679233,VALID,20.7802,VALID,27,VALID,0.0537348,
2009-04-30, 03:13:00,VALID,917.215,VALID,0,VALID,100,VALID,-0.0849042,VALID,20.7775,VALID,39,VALID,0,
2009-04-30, 03:14:00,VALID,917.208,VALID,0,VALID,100,VALID,-0.101885,VALID,20.7972,VALID,35,VALID,0,
2009-04-30, 03:15:00,VALID,917.216,VALID,0,VALID,100,VALID,-0.101885,VALID,20.7869,VALID,35,VALID,0,
2009-04-30, 03:16:00,VALID,917.212,VALID,0,VALID,100,VALID,-0.0849042,VALID,20.791,VALID,36,VALID,0,
2009-04-30, 03:17:00,VALID,917.211,VALID,0,VALID,100,VALID,-0.0849042,VALID,20.7477,VALID,32,VALID,0,
2009-04-30, 03:18:00,VALID,917.214,VALID,0,VALID,100,VALID,-0.0849042,VALID,20.7742,VALID,32,VALID,0,
2009-04-30, 03:19:00,VALID,917.207,VALID,0,VALID,100,VALID,-0.118866,VALID,20.7972,VALID,32,VALID,0,
2009-04-30, 03:20:00,VALID,917.208,VALID,0,VALID,100,VALID,-0.0679233,VALID,20.8169,VALID,32,VALID,0,
2009-04-30, 03:21:00,VALID,917.189,VALID,0,VALID,100,VALID,-0.0849042,VALID,20.8002,VALID,3,VALID,0,
2009-04-30, 03:22:00,VALID,917.183,VALID,0,VALID,100,VALID,-0.0679233,VALID,20.781,VALID,344,VALID,0,
2009-04-30, 03:23:00,VALID,917.189,VALID,0,VALID,100,VALID,-0.0849042,VALID,20.7577,VALID,342,VALID,0,
2009-04-30, 03:24:00,VALID,917.161,VALID,0,VALID,100,VALID,-0.0849042,VALID,20.7453,VALID,342,VALID,0,
2009-04-30, 03:25:00,VALID,917.144,VALID,0,VALID,100,VALID,-0.101885,VALID,20.765,VALID,342,VALID,0,
2009-04-30, 03:26:00,VALID,917.118,VALID,0,VALID,100,VALID,-0.101885,VALID,20.7612,VALID,342,VALID,0,
2009-04-30, 03:27:00,VALID,917.095,VALID,0,VALID,100,VALID,-0.0679233,VALID,20.7777,VALID,342,VALID,0,
2009-04-30, 03:28:00,VALID,917.068,VALID,0,VALID,100,VALID,-0.0679233,VALID,20.7872,VALID,342,VALID,0,
2009-04-30, 03:29:00,VALID,917.06,VALID,0,VALID,100,VALID,-0.0849042,VALID,20.7969,VALID,2,VALID,0,
2009-04-30, 03:30:00,VALID,917.026,VALID,0,VALID,100,VALID,-0.101885,VALID,20.8104,VALID,18,VALID,0,
2009-04-30, 03:31:00,VALID,917.013,VALID,0,VALID,100,VALID,-0.101885,VALID,20.8072,VALID,37,VALID,0,
2009-04-30, 03:32:00,VALID,917.014,VALID,0,VALID,100,VALID,-0.101885,VALID,20.8264,VALID,22,VALID,0,
2009-04-30, 03:33:00,VALID,917.024,VALID,0,VALID,100,VALID,-0.101885,VALID,20.8432,VALID,20,VALID,0,
2009-04-30, 03:34:00,VALID,917.044,VALID,0,VALID,100,VALID,-0.101885,VALID,20.8491,VALID,52,VALID,0.00121528,
2009-04-30, 03:35:00,VALID,917.061,VALID,0,VALID,100,VALID,-0.0849042,VALID,20.8556,VALID,41,VALID,0,
2009-04-30, 03:36:00,VALID,917.086,VALID,0,VALID,100,VALID,-0.101885,VALID,20.8359,VALID,40,VALID,0,
2009-04-30, 03:37:00,VALID,917.119,VALID,0,VALID,100,VALID,-0.0849042,VALID,20.8232,VALID,309,VALID,0,
2009-04-30, 03:38:00,VALID,917.12,VALID,0,VALID,100,VALID,-0.0849042,VALID,20.7934,VALID,262,VALID,0,
2009-04-30, 03:39:00,VALID,917.133,VALID,0,VALID,100,VALID,-0.0679233,VALID,20.7772,VALID,262,VALID,0,
2009-04-30, 03:40:00,VALID,917.14,VALID,0,VALID,100,VALID,-0.0339617,VALID,20.7637,VALID,262,VALID,0,
2009-04-30, 03:41:00,VALID,917.131,VALID,0,VALID,100,VALID,-0.0339617,VALID,20.7637,VALID,262,VALID,0,
2009-04-30, 03:42:00,VALID,917.13,VALID,0,VALID,100,VALID,-0.0169808,VALID,20.7512,VALID,262,VALID,0,
2009-04-30, 03:43:00,VALID,917.115,VALID,0,VALID,100,VALID,-0.0339617,VALID,20.7545,VALID,262,VALID,0,
2009-04-30, 03:44:00,VALID,917.104,VALID,0,VALID,100,VALID,-0.0509425,VALID,20.7872,VALID,262,VALID,0,
2009-04-30, 03:45:00,VALID,917.083,VALID,0,VALID,100,VALID,-0.0339617,VALID,20.8359,VALID,271,VALID,0,
2009-04-30, 03:46:00,VALID,917.065,VALID,0,VALID,100,VALID,-0.0679233,VALID,20.8126,VALID,59,VALID,0,
2009-04-30, 03:47:00,VALID,917.041,VALID,0,VALID,100,VALID,-0.0509425,VALID,20.7775,VALID,54,VALID,0,
2009-04-30, 03:48:00,VALID,917.017,VALID,0,VALID,100,VALID,-0.0339617,VALID,20.745,VALID,35,VALID,0,
2009-04-30, 03:49:00,VALID,917.014,VALID,0,VALID,100,VALID,-0.0169808,VALID,20.7577,VALID,5,VALID,0,